EW9311 Weather Reports


Display with metric or nautical units.
time (UTC)temp
F
wind
direction
speed
MPH
gust
MPH
rain 1hr
in
rain 24hr
in
rain mn
in
humidity
%
barometer
mb
20260904111535 51 0 0.0 0.0 0.00 0.00 0.00 89 1023.5
20260904110033 51 0 0.0 0.0 0.00 0.00 0.00 87 1023.3
20260904104559 51 0 0.0 0.0 0.00 0.00 0.00 88 1023.6
20260904103037 50 0 0.0 0.0 0.00 0.00 0.00 88 1023.7
20260904101541 49 0 0.0 0.0 0.00 0.00 0.00 88 1023.8
20260904100035 49 0 0.0 0.0 0.00 0.00 0.00 89 1023.7
20260904094548 49 0 0.0 0.0 0.00 0.00 0.00 89 1023.3
20260904093037 49 0 0.0 0.0 0.00 0.00 0.00 89 1022.9
20260904091538 49 0 0.0 0.0 0.00 0.00 0.00 88 1022.8
20260904090033 50 0 0.0 0.0 0.00 0.00 0.00 87 1022.7
20260904084534 50 0 0.0 0.0 0.00 0.00 0.00 86 1022.9
20260904083036 51 0 0.0 0.0 0.00 0.00 0.00 85 1022.9
20260904081536 51 0 0.0 0.0 0.00 0.00 0.00 86 1022.8
20260904080036 50 0 0.0 0.0 0.00 0.00 0.00 87 1022.8
20260904074534 50 0 0.0 0.0 0.00 0.00 0.00 87 1023.0
20260904073037 51 0 0.0 0.0 0.00 0.00 0.00 87 1023.1
20260904071536 51 0 0.0 0.0 0.00 0.00 0.00 86 1023.3
20260904070041 52 0 0.0 0.0 0.00 0.00 0.00 86 1023.1
20260904064537 52 0 0.0 0.0 0.00 0.00 0.00 85 1023.1
20260904063040 53 0 0.0 0.0 0.00 0.00 0.00 85 1023.2
20260904061535 53 0 0.0 0.0 0.00 0.00 0.00 84 1023.2
20260904060107 54 0 0.0 0.0 0.00 0.00 0.00 83 1023.1
20260904054533 55 0 0.0 0.0 0.00 0.00 0.00 81 1023.0
20260904053117 56 0 0.0 0.0 0.00 0.00 0.00 79 1022.9
20260904051549 57 0 0.0 0.0 0.00 0.00 0.00 76 1022.8
20260904050037 59 0 0.0 0.0 0.00 0.00 0.00 73 1022.7
20260904044538 60 0 0.0 0.0 0.00 0.00 0.00 70 1022.7
20260904043035 61 0 0.0 0.0 0.00 0.00 0.00 66 1022.9
20260904041536 61 0 0.0 0.0 0.00 0.00 0.00 67 1022.7
20260904040043 61 0 0.0 0.0 0.00 0.00 0.00 65 1022.7
20260904034537 61 0 0.0 0.0 0.00 0.00 0.00 65 1022.8
20260904033040 61 0 0.0 0.0 0.00 0.00 0.00 64 1023.0
20260904031533 62 0 0.0 0.0 0.00 0.00 0.00 64 1022.9
20260904030036 62 0 0.0 0.0 0.00 0.00 0.00 64 1023.0
20260904024536 63 0 0.0 0.0 0.00 0.00 0.00 65 1023.1
20260904023045 63 0 0.0 1.0 0.00 0.00 0.00 62 1022.8
20260904021536 62 0 0.0 0.0 0.00 0.00 0.00 62 1022.7
20260904020038 62 0 0.0 0.0 0.00 0.00 0.00 62 1022.5
20260904014536 62 0 0.0 0.0 0.00 0.00 0.00 60 1022.5
20260904013035 62 0 0.0 0.0 0.00 0.00 0.00 59 1022.4
20260904011536 61 0 0.0 0.0 0.00 0.00 0.00 63 1022.5
20260904010035 60 0 0.0 0.0 0.00 0.00 0.00 63 1022.4
20260904004535 60 0 0.0 0.0 0.00 0.00 0.00 61 1022.7
20260904003038 61 0 0.0 0.0 0.00 0.00 0.00 58 1022.5
20260904001537 62 0 0.0 0.0 0.00 0.00 0.00 55 1022.8
20260904000048 62 0 0.0 0.0 0.00 0.00 0.00 54 1022.7
20260903234536 62 0 0.0 0.0 0.00 0.00 0.00 57 1022.7
20260903233048 62 0 0.0 0.0 0.00 0.00 0.00 56 1022.3
20260903231534 63 0 0.0 0.0 0.00 0.00 0.00 55 1022.4
20260903230047 63 0 0.0 0.0 0.00 0.00 0.00 55 1022.2
20260903224542 63 0 0.0 0.0 0.00 0.00 0.00 57 1022.1
20260903223058 62 0 0.0 0.0 0.00 0.00 0.00 56 1022.2
20260903221535 62 0 0.0 0.0 0.00 0.00 0.00 59 1022.6
20260903220038 62 0 0.0 0.0 0.00 0.00 0.00 57 1022.5
20260903214539 61 0 0.0 0.0 0.00 0.00 0.00 59 1022.9
20260903213048 61 0 0.0 0.0 0.00 0.00 0.00 60 1022.7
20260903211541 61 0 0.0 0.0 0.00 0.00 0.00 60 1022.5
20260903210047 60 0 0.0 0.0 0.00 0.00 0.00 60 1022.3
20260903204534 60 0 0.0 0.0 0.00 0.00 0.00 58 1022.4
20260903203037 60 0 0.0 0.0 0.00 0.00 0.00 60 1022.6
20260903201533 58 0 0.0 0.0 0.00 0.00 0.00 61 1022.6
20260903200034 57 0 0.0 0.0 0.00 0.00 0.00 66 1022.5
20260903194543 56 0 0.0 0.0 0.00 0.00 0.00 67 1022.5
20260903193037 56 0 0.0 0.0 0.00 0.00 0.00 67 1022.3
20260903191536 55 0 0.0 0.0 0.00 0.00 0.00 69 1022.4
20260903190035 54 0 0.0 0.0 0.00 0.00 0.00 72 1022.4
20260903184545 54 0 0.0 0.0 0.00 0.00 0.00 73 1022.4
20260903183034 53 0 0.0 0.0 0.00 0.00 0.00 76 1022.7
20260903181538 53 0 0.0 0.0 0.00 0.00 0.00 77 1022.8
20260903180037 53 0 0.0 0.0 0.00 0.00 0.00 74 1022.7
20260903174534 51 0 0.0 0.0 0.00 0.00 0.00 78 1022.4
20260903173035 49 0 0.0 0.0 0.00 0.00 0.00 83 1022.6
20260903171536 48 0 0.0 0.0 0.00 0.00 0.00 86 1022.5
20260903170034 47 0 0.0 0.0 0.00 0.00 0.00 86 1022.2
20260903164533 46 0 0.0 0.0 0.00 0.00 0.00 85 1022.2
20260903163042 46 0 0.0 0.0 0.00 0.00 0.00 84 1022.1
20260903161533 46 0 0.0 0.0 0.00 0.00 0.00 83 1021.9
20260903160042 45 0 0.0 0.0 0.00 0.00 0.00 83 1021.8
20260903154534 44 0 0.0 0.0 0.00 0.00 0.00 83 1022.0
20260903153037 44 0 0.0 0.0 0.00 0.00 0.00 83 1022.0
20260903151536 43 0 0.0 0.0 0.00 0.00 0.00 84 1022.0
20260903150049 43 0 0.0 0.0 0.00 0.00 0.00 86 1022.1
20260903144539 43 0 0.0 0.0 0.00 0.00 0.00 84 1022.0
20260903143053 44 0 0.0 0.0 0.00 0.00 0.00 83 1021.9
20260903141536 44 0 0.0 0.0 0.00 0.00 0.00 81 1021.6
20260903140041 44 0 0.0 0.0 0.00 0.00 0.00 80 1021.8
20260903134543 44 0 0.0 0.0 0.00 0.00 0.00 80 1021.6
20260903133034 43 0 0.0 0.0 0.00 0.00 0.00 82 1022.0
20260903131536 43 0 0.0 0.0 0.00 0.00 0.00 80 1021.6
20260903130043 43 0 0.0 0.0 0.00 0.00 0.00 81 1021.5
20260903124533 42 0 0.0 0.0 0.00 0.00 0.00 83 1021.5
20260903123042 41 0 0.0 0.0 0.00 0.00 0.00 84 1021.6
20260903121552 42 0 0.0 0.0 0.00 0.00 0.00 84 1021.5
20260903120033 43 0 0.0 0.0 0.00 0.00 0.00 82 1021.4
20260903114534 41 0 0.0 0.0 0.00 0.00 0.00 86 1021.3
20260903113035 42 0 0.0 0.0 0.00 0.00 0.00 83 1021.3